[[{"header":{"parameterUnit":"m.s-1","parameterCategory":1,"la1":30.2991,"la2":30.254,"lo1":-89.0895,"lo2":-89.0444,"dy":0.0017,"dx":0.0017,"nx":28,"ny":28,"refTime":"2024-05-30T03:00:00:Z","depth":0,"parameterNumber":2,"parameterNumberName":"U-component_of_WINDS"},"data":[0,0,0,0,0,0,0,0,0,0,0,0,0,0,0,0,0,0,0,0,0,0,0,0,0,0,0,0,0,0,0,0,0,0,0,0,0,0,0,0,0,0,0,0,0,0,0,0,0,0,0,0,0,0,0,0,0,0,-0.8887,-0.8886,0,-0.8807,-0.8806,-0.8805,-0.8743,-0.8742,-0.8742,-0.8741,-0.8659,-0.8657,-0.8655,0,0,0,0,0,0,0,0,0,0,0,0,0,-0.8985,-0.8984,-0.8887,-0.8886,-0.8885,-0.8807,-0.8806,-0.8805,-0.8743,-0.8742,-0.8742,-0.8741,-0.8659,-0.8657,-0.8655,0,0,0,0,0,0,0,0,0,0,0,0,0,-0.8928,-0.8983,-0.8888,-0.8845,-0.884,-0.8808,-0.8806,-0.8805,-0.8743,-0.8742,-0.8742,-0.8741,-0.866,-0.8657,-0.8655,-0.8657,0,0,-0.8647,-0.8646,0,0,0,0,0,0,0,0,-0.8931,-0.8924,-0.8852,-0.8848,-0.8843,-0.8784,-0.881,-0.8755,-0.8744,-0.878,-0.8741,-0.874,-0.8701,-0.8695,-0.8682,-0.8654,-0.865,-0.8647,-0.8646,-0.8645,-0.8644,0,0,0,0,0,0,0,-0.8935,-0.8927,-0.8856,-0.8851,-0.8845,-0.8829,-0.882,-0.88,-0.8747,-0.8777,-0.8772,-0.8764,-0.8698,-0.8685,-0.868,-0.8649,-0.8647,-0.8645,-0.8643,-0.8642,-0.8617,-0.8618,0,0,0,0,0,0,-0.8946,-0.8931,-0.8858,-0.8853,-0.8886,-0.8828,-0.8818,-0.8804,-0.8747,-0.8737,-0.8764,-0.8761,-0.8689,-0.8683,-0.8676,-0.8674,-0.8645,-0.8642,-0.8641,-0.8616,-0.8617,-0.8618,0,0,0,0,0,0,-0.8948,-0.894,-0.8861,-0.8891,-0.8879,-0.8828,-0.8812,-0.8803,-0.8789,-0.8737,-0.8727,-0.876,-0.8688,-0.868,-0.8662,-0.8671,-0.8641,-0.8639,-0.8615,-0.8616,-0.8617,-0.8672,0,0,0,0,0,0,-0.8951,-0.8941,-0.8942,-0.8891,-0.8878,-0.8849,-0.8813,-0.8802,-0.8785,-0.878,-0.8731,-0.8722,-0.8687,-0.8666,-0.866,-0.8667,-0.8637,-0.8614,-0.8616,-0.8617,-0.8669,-0.8675,-0.8679,0,0,0,0,0,-0.8955,-0.8961,-0.8942,-0.8934,-0.8878,-0.885,-0.8842,-0.8802,-0.8786,-0.8786,-0.8753,-0.8723,-0.8671,-0.8665,-0.8657,-0.8664,-0.8613,-0.8615,-0.8617,-0.8666,-0.8673,-0.8679,0,0,0,0,0,0,-0.9013,-0.8953,-0.8932,-0.8922,-0.8891,-0.8839,-0.8838,-0.8811,-0.8785,-0.8781,-0.8732,-0.8722,-0.8709,-0.8684,-0.8679,-0.8662,-0.8638,-0.8639,-0.8679,-0.8685,-0.869,-0.8696,-0.8635,0,0,0,0,0,-0.9025,-0.9008,-0.8956,-0.8951,-0.8937,-0.8891,-0.8877,-0.8849,-0.8815,-0.8802,-0.8767,-0.8735,-0.8711,-0.8697,-0.8672,-0.8665,-0.8653,-0.8666,-0.8671,-0.8676,-0.8676,-0.8669,-0.8674,-0.8624,-0.8624,-0.8624,0,0,-0.9049,-0.9014,-0.9006,-0.8962,-0.8935,-0.8918,-0.888,-0.8863,-0.8849,-0.8799,-0.878,-0.8754,-0.8715,-0.8702,-0.8695,-0.8681,-0.8687,-0.8678,-0.8682,-0.868,-0.8672,-0.8676,-0.8681,-0.8625,-0.8625,-0.8625,0,0,-0.9083,-0.9056,-0.9048,-0.9022,-0.8982,-0.8951,-0.8949,-0.8901,-0.8882,-0.8862,-0.8824,-0.8806,-0.8767,-0.874,-0.8722,-0.8745,-0.8717,-0.8739,-0.8766,-0.876,-0.8764,-0.8767,-0.8774,-0.8778,-0.874,-0.874,-0.874,0,-0.9118,-0.909,-0.9048,-0.9033,-0.9014,-0.8969,-0.896,-0.8937,-0.8891,-0.8879,-0.8864,-0.8813,-0.8784,-0.8764,-0.877,-0.8756,-0.8752,-0.8744,-0.8767,-0.877,-0.8772,-0.8778,-0.8781,-0.8743,-0.8742,-0.8742,-0.8742,0,-0.9134,-0.9115,-0.9114,-0.9071,-0.9052,-0.9041,-0.8996,-0.8982,-0.8956,-0.8926,-0.8906,-0.8869,-0.8836,-0.8829,-0.8803,-0.8805,-0.8798,-0.8776,-0.8751,-0.878,-0.8785,-0.8787,-0.8747,-0.8746,-0.8745,-0.8744,0,0,-0.9203,-0.9136,-0.9136,-0.9116,-0.9068,-0.9052,-0.9038,-0.9006,-0.8994,-0.8964,-0.895,-0.8918,-0.8897,-0.8876,-0.8846,-0.8841,-0.8861,-0.8819,-0.8818,-0.8827,-0.8859,-0.8875,-0.8879,-0.8842,-0.8842,-0.8842,-0.8862,0,-0.9229,-0.9201,-0.9163,-0.9148,-0.913,-0.9086,-0.9073,-0.9042,-0.9014,-0.8993,-0.8962,-0.8939,-0.8914,-0.8901,-0.8894,-0.886,-0.8866,-0.8858,-0.8828,-0.8827,-0.8838,-0.8881,-0.8898,-0.8919,-0.8864,-0.8864,-0.8864,0,-0.9255,-0.9227,-0.9211,-0.9164,-0.9154,-0.9144,-0.9111,-0.9092,-0.9056,-0.9035,-0.9012,-0.898,-0.8962,-0.894,-0.8914,-0.8909,-0.8894,-0.8876,-0.8876,-0.887,-0.8847,-0.8876,-0.8924,-0.8927,-0.8867,-0.8867,-0.8867,0,-0.9305,-0.9264,-0.9248,-0.9232,-0.9177,-0.9171,-0.9147,-0.911,-0.9092,-0.9063,-0.9051,-0.902,-0.9003,-0.898,-0.894,-0.8928,-0.8918,-0.8893,-0.8899,-0.89,-0.8899,-0.8899,-0.8944,-0.8891,-0.8891,-0.8891,-0.8891,0,-0.9338,-0.9329,-0.927,-0.926,-0.9249,-0.9205,-0.9194,-0.9167,-0.9134,-0.9118,-0.9078,-0.9063,-0.9012,-0.8991,-0.896,-0.8942,-0.8935,-0.8918,-0.8909,-0.892,-0.8923,-0.8909,-0.8907,-0.8892,-0.8892,-0.8891,-0.8891,0,-0.9392,-0.9352,-0.9332,-0.9281,-0.9268,-0.9262,-0.9218,-0.9207,-0.9176,-0.9156,-0.9149,-0.91,-0.9074,-0.9032,-0.8993,-0.8971,-0.8959,-0.8946,-0.8971,-0.8966,-0.8975,-0.8974,-0.9012,-0.9014,-0.8962,-0.8962,-0.8963,0,-0.9414,-0.9407,-0.9355,-0.9342,-0.932,-0.9298,-0.928,-0.9236,-0.9219,-0.9176,-0.917,-0.914,-0.9114,-0.9073,-0.9034,-0.9003,-0.8988,-0.9004,-0.8984,-0.8995,-0.8987,-0.8988,-0.8986,-0.9008,-0.9009,-0.901,-0.901,0,-0.9458,-0.9439,-0.9415,-0.9384,-0.9363,-0.9337,-0.9308,-0.9299,-0.9248,-0.9231,-0.9203,-0.9183,-0.9142,-0.9113,-0.9077,-0.9052,-0.9022,-0.9017,-0.9017,-0.9028,-0.9042,-0.9033,-0.8983,-0.9016,-0.9015,-0.9015,-0.9015,-0.9014,-0.9496,-0.9487,-0.9449,-0.9423,-0.9397,-0.9371,-0.9358,-0.9325,-0.9302,-0.9266,-0.9241,-0.9214,-0.9177,-0.9126,-0.9102,-0.908,-0.9067,-0.9067,-0.9067,-0.9068,-0.9071,-0.9047,-0.9074,-0.9074,-0.9073,-0.9073,-0.9073,0,-0.9537,-0.9511,-0.9488,-0.9449,-0.9428,-0.9403,-0.9369,-0.9353,-0.9331,-0.9299,-0.9274,-0.9241,-0.9212,-0.9171,-0.9139,-0.9129,-0.9115,-0.9122,-0.9122,-0.9116,-0.9085,-0.9088,-0.9134,-0.9134,-0.9134,-0.9134,-0.9134,-0.9134,-0.9556,-0.9539,-0.9515,-0.9484,-0.9457,-0.9431,-0.9414,-0.9389,-0.9363,-0.9329,-0.9305,-0.9278,-0.9242,-0.9207,-0.9179,-0.9167,-0.9157,-0.9168,-0.9152,-0.9124,-0.9118,-0.9113,-0.9116,-0.9167,-0.9167,-0.9185,-0.9185,-0.9185]},{"header":{"parameterUnit":"m.s-1","parameterCategory":1,"la1":30.2991,"la2":30.254,"lo1":-89.0895,"lo2":-89.0444,"dy":0.0017,"dx":0.0017,"nx":28,"ny":28,"refTime":"2024-05-30T03:00:00:Z","depth":0,"parameterNumber":3,"parameterNumberName":"V-component_of_WINDS"},"data":[0,0,0,0,0,0,0,0,0,0,0,0,0,0,0,0,0,0,0,0,0,0,0,0,0,0,0,0,0,0,0,0,0,0,0,0,0,0,0,0,0,0,0,0,0,0,0,0,0,0,0,0,0,0,0,0,0,0,-0.4401,-0.4402,0,-0.4528,-0.4529,-0.453,-0.4673,-0.4675,-0.4677,-0.4679,-0.48,-0.4801,-0.4802,0,0,0,0,0,0,0,0,0,0,0,0,0,-0.4274,-0.4275,-0.4401,-0.4402,-0.4404,-0.4527,-0.4529,-0.4531,-0.4672,-0.4675,-0.4678,-0.468,-0.4799,-0.4801,-0.4802,0,0,0,0,0,0,0,0,0,0,0,0,0,-0.4357,-0.4276,-0.44,-0.449,-0.4499,-0.4527,-0.4529,-0.4531,-0.4672,-0.4675,-0.4678,-0.4681,-0.4799,-0.48,-0.4802,-0.475,0,0,-0.4808,-0.4809,0,0,0,0,0,0,0,0,-0.4352,-0.4362,-0.4475,-0.4484,-0.4494,-0.4588,-0.4529,-0.4604,-0.4671,-0.4606,-0.4679,-0.4683,-0.4726,-0.4734,-0.475,-0.4755,-0.4761,-0.4808,-0.4809,-0.481,-0.4811,0,0,0,0,0,0,0,-0.4346,-0.4357,-0.4451,-0.4476,-0.4488,-0.4521,-0.4536,-0.4544,-0.4646,-0.4612,-0.4623,-0.4636,-0.4732,-0.4748,-0.4754,-0.4762,-0.4808,-0.481,-0.4811,-0.4812,-0.473,-0.4727,0,0,0,0,0,0,-0.4328,-0.4351,-0.4447,-0.4455,-0.443,-0.4521,-0.4538,-0.4554,-0.4647,-0.4664,-0.4633,-0.4642,-0.4744,-0.4752,-0.4759,-0.4703,-0.481,-0.4812,-0.4813,-0.4733,-0.4729,-0.4726,0,0,0,0,0,0,-0.4325,-0.4335,-0.4442,-0.4406,-0.4422,-0.452,-0.4537,-0.4555,-0.4572,-0.4663,-0.4681,-0.4632,-0.4746,-0.4756,-0.4752,-0.4709,-0.4813,-0.4814,-0.4737,-0.4732,-0.4728,-0.459,0,0,0,0,0,0,-0.4321,-0.4333,-0.4316,-0.4405,-0.4423,-0.4434,-0.4534,-0.4555,-0.4576,-0.4589,-0.4666,-0.4682,-0.475,-0.4748,-0.4753,-0.4714,-0.4816,-0.4741,-0.4735,-0.4729,-0.4599,-0.4581,-0.4566,0,0,0,0,0,-0.4316,-0.427,-0.4315,-0.4325,-0.4404,-0.4431,-0.4442,-0.4523,-0.4572,-0.4554,-0.4613,-0.468,-0.4714,-0.4746,-0.4754,-0.4714,-0.4744,-0.4737,-0.473,-0.4606,-0.4585,-0.4567,0,0,0,0,0,0,-0.4171,-0.4284,-0.4334,-0.4316,-0.4363,-0.4455,-0.4435,-0.4498,-0.4529,-0.454,-0.4637,-0.4653,-0.4636,-0.4675,-0.4709,-0.4668,-0.4739,-0.4732,-0.4642,-0.4623,-0.4607,-0.4596,-0.4817,0,0,0,0,0,-0.4138,-0.4153,-0.425,-0.4225,-0.4246,-0.4336,-0.4351,-0.441,-0.4461,-0.4481,-0.4539,-0.4584,-0.4605,-0.4617,-0.4641,-0.4607,-0.4624,-0.4582,-0.4566,-0.4552,-0.4544,-0.4528,-0.451,-0.4702,-0.4702,-0.4702,0,0,-0.4067,-0.4131,-0.4134,-0.4197,-0.4241,-0.4252,-0.4352,-0.4359,-0.4367,-0.4481,-0.4481,-0.4525,-0.4581,-0.4561,-0.4555,-0.4593,-0.4496,-0.4543,-0.4531,-0.4531,-0.4519,-0.45,-0.4484,-0.4697,-0.4698,-0.4699,0,0,-0.3945,-0.3996,-0.3981,-0.4023,-0.4089,-0.415,-0.4146,-0.4229,-0.4263,-0.4265,-0.4351,-0.4361,-0.4395,-0.4432,-0.4455,-0.4348,-0.441,-0.4353,-0.4266,-0.4249,-0.4234,-0.4221,-0.4181,-0.4165,-0.4346,-0.4346,-0.4346,0,-0.3848,-0.3871,-0.3964,-0.3967,-0.3991,-0.4099,-0.4082,-0.4118,-0.4187,-0.42,-0.4242,-0.4288,-0.4334,-0.4323,-0.4297,-0.4313,-0.431,-0.4343,-0.4229,-0.4217,-0.4206,-0.4169,-0.4154,-0.4338,-0.4339,-0.434,-0.4341,0,-0.3749,-0.3763,-0.3742,-0.381,-0.3832,-0.3825,-0.3914,-0.3925,-0.3983,-0.4038,-0.4037,-0.4097,-0.4134,-0.4137,-0.4192,-0.4134,-0.4155,-0.4212,-0.4285,-0.4179,-0.4145,-0.4132,-0.4327,-0.433,-0.4332,-0.4334,0,0,-0.3536,-0.3657,-0.3647,-0.3679,-0.3761,-0.3772,-0.3769,-0.381,-0.3816,-0.3861,-0.3859,-0.3886,-0.394,-0.3966,-0.4026,-0.4011,-0.3921,-0.407,-0.4073,-0.4038,-0.3858,-0.3813,-0.3795,-0.3964,-0.3962,-0.396,-0.3853,0,-0.3426,-0.3431,-0.3515,-0.3495,-0.3508,-0.3611,-0.3609,-0.3657,-0.3709,-0.3725,-0.3782,-0.3799,-0.387,-0.3886,-0.3876,-0.3934,-0.3885,-0.3943,-0.396,-0.3959,-0.394,-0.3778,-0.3731,-0.3627,-0.3841,-0.3839,-0.3837,0,-0.3298,-0.3339,-0.332,-0.3403,-0.3412,-0.3408,-0.3452,-0.3468,-0.3524,-0.3563,-0.3593,-0.3662,-0.3663,-0.3734,-0.3734,-0.3771,-0.3783,-0.3813,-0.3811,-0.3813,-0.3889,-0.3773,-0.3596,-0.3579,-0.3818,-0.3819,-0.3821,0,-0.3142,-0.3192,-0.3188,-0.3212,-0.3309,-0.3303,-0.3343,-0.3403,-0.3422,-0.3459,-0.3472,-0.3508,-0.3526,-0.3551,-0.3628,-0.3673,-0.3618,-0.3696,-0.3648,-0.3645,-0.3629,-0.3628,-0.3448,-0.3641,-0.3641,-0.3641,-0.3641,0,-0.301,-0.2994,-0.3119,-0.3115,-0.3101,-0.3197,-0.3178,-0.3227,-0.328,-0.3286,-0.3377,-0.338,-0.3482,-0.3496,-0.3556,-0.3546,-0.3554,-0.3583,-0.3598,-0.3573,-0.3569,-0.358,-0.3588,-0.3637,-0.3638,-0.3639,-0.364,0,-0.2831,-0.2915,-0.2917,-0.301,-0.3033,-0.3017,-0.3095,-0.3095,-0.3154,-0.316,-0.3167,-0.3258,-0.3279,-0.3359,-0.3398,-0.3438,-0.3408,-0.344,-0.339,-0.3399,-0.3346,-0.3348,-0.3164,-0.3143,-0.3351,-0.3349,-0.3347,0,-0.274,-0.2731,-0.2824,-0.2836,-0.2873,-0.2891,-0.2912,-0.3006,-0.3024,-0.3088,-0.3078,-0.3108,-0.3136,-0.3165,-0.3232,-0.3263,-0.3295,-0.3228,-0.3299,-0.3274,-0.3291,-0.3289,-0.3288,-0.3211,-0.3208,-0.3206,-0.3204,0,-0.2568,-0.261,-0.2639,-0.2681,-0.2704,-0.2741,-0.2784,-0.2788,-0.2893,-0.2907,-0.2932,-0.2954,-0.2996,-0.3023,-0.3065,-0.3103,-0.3169,-0.3182,-0.3172,-0.3145,-0.3115,-0.3128,-0.3345,-0.3185,-0.3187,-0.3188,-0.3189,-0.319,-0.2429,-0.2426,-0.2491,-0.2519,-0.2562,-0.2599,-0.2604,-0.2664,-0.2688,-0.2731,-0.2785,-0.2803,-0.2859,-0.2923,-0.2956,-0.2969,-0.3006,-0.2992,-0.2988,-0.2982,-0.2969,-0.3115,-0.2977,-0.2978,-0.2978,-0.2979,-0.2979,0,-0.226,-0.2308,-0.2333,-0.2391,-0.2413,-0.2479,-0.2529,-0.2541,-0.2557,-0.2605,-0.2632,-0.266,-0.2687,-0.2757,-0.2791,-0.2787,-0.2818,-0.2792,-0.2792,-0.2799,-0.2935,-0.2939,-0.2767,-0.2767,-0.2767,-0.2767,-0.2767,-0.2767,-0.2174,-0.2172,-0.2222,-0.224,-0.2288,-0.2309,-0.2331,-0.2366,-0.2405,-0.2433,-0.2457,-0.2505,-0.2561,-0.2599,-0.2626,-0.2646,-0.2652,-0.2616,-0.2645,-0.277,-0.279,-0.2809,-0.2814,-0.2617,-0.2617,-0.2508,-0.2507,-0.2506]}]]